FW3224 Weather Reports


time (UTC)temp
F
wind
direction
speed
knots
gust
knots
rain 1hr
in
rain 24hr
in
rain mn
in
humidity
%
barometer
mb
20260506042037 70 133 1.7 5.2 0.00 0.00 0.00 75 1016.1
20260506041536 70 113 0.9 6.1 0.00 0.00 0.00 74 1016.1
20260506041034 70 96 1.7 6.1 0.00 0.00 0.00 74 1016.1
20260506040538 70 96 1.7 6.1 0.00 0.00 0.00 74 1016.2
20260506040034 70 106 1.7 6.1 0.00 0.00 0.00 74 1016.2
20260506035533 70 97 2.6 6.1 0.00 0.00 0.00 74 1016.3
20260506035033 70 75 1.7 5.2 0.00 0.00 0.00 73 1016.4
20260506034533 70 77 0.9 6.1 0.00 0.00 0.00 73 1016.4
20260506034132 70 75 1.7 6.1 0.00 0.00 0.00 73 1016.5
20260506033530 71 91 1.7 6.1 0.00 0.00 0.00 73 1016.6
20260506033034 71 105 2.6 6.1 0.00 0.00 0.00 72 1016.7
20260506032529 71 67 1.7 5.2 0.00 0.00 0.00 73 1016.7
20260506032030 71 74 1.7 5.2 0.00 0.00 0.00 73 1016.8
20260506031528 71 170 1.7 5.2 0.00 0.00 0.00 72 1016.8
20260506031025 71 113 1.7 6.1 0.00 0.00 0.00 73 1016.8
20260506030529 70 83 1.7 6.1 0.00 0.00 0.00 74 1016.9
20260506030024 69 123 0.9 6.1 0.00 0.00 0.00 76 1017.0
20260506025526 69 88 2.6 6.1 0.00 0.00 0.00 75 1017.1
20260506025022 69 118 1.7 5.2 0.00 0.00 0.00 76 1017.1
20260506024523 69 123 1.7 6.1 0.00 0.00 0.00 76 1017.1
20260506024024 69 111 1.7 3.5 0.00 0.00 0.00 74 1017.2
20260506023522 69 119 1.7 4.3 0.00 0.00 0.00 73 1017.3
20260506023022 70 78 0.9 7.0 0.00 0.00 0.00 72 1017.4
20260506022520 70 92 1.7 7.0 0.00 0.00 0.00 71 1017.5
20260506022022 70 69 0.9 3.5 0.00 0.00 0.00 71 1017.5
20260506021519 70 210 0.9 3.5 0.00 0.00 0.00 71 1017.6
20260506021017 70 148 0.9 7.0 0.00 0.00 0.00 72 1017.7
20260506020516 69 83 2.6 7.0 0.00 0.00 0.00 72 1017.7
20260506020030 69 76 0.9 5.2 0.00 0.00 0.00 73 1017.9
20260506015515 69 68 0.9 6.1 0.00 0.00 0.00 71 1018.0
20260506015018 69 84 0.0 2.6 0.00 0.00 0.00 70 1018.1
20260506014514 70 76 0.9 5.2 0.00 0.00 0.00 69 1018.2
20260506014012 70 88 0.9 3.5 0.00 0.00 0.00 68 1018.3
20260506013514 71 111 0.0 3.5 0.00 0.00 0.00 68 1018.4
20260506013010 70 121 0.9 3.5 0.00 0.00 0.00 68 1018.4
20260506012511 70 202 0.9 4.3 0.00 0.00 0.00 68 1018.5
20260506012009 70 168 0.9 5.2 0.00 0.00 0.00 69 1018.6
20260506011507 69 95 0.9 5.2 0.00 0.00 0.00 69 1018.7
20260506011007 69 70 0.9 3.5 0.00 0.00 0.00 70 1018.9
20260506010505 69 149 0.9 6.1 0.00 0.00 0.00 70 1018.9
20260506010004 69 44 1.7 6.1 0.00 0.00 0.00 70 1019.0
20260506005502 69 111 1.7 5.2 0.00 0.00 0.00 69 1019.0
20260506005002 69 151 0.9 3.5 0.00 0.00 0.00 71 1019.2
20260506004501 69 100 0.9 4.3 0.00 0.00 0.00 70 1019.2
20260506004001 69 78 1.7 4.3 0.00 0.00 0.00 70 1019.2
20260506003600 69 120 0.9 3.5 0.00 0.00 0.00 68 1019.2
20260506003059 69 153 0.9 2.6 0.00 0.00 0.00 68 1019.2
20260506002558 68 152 0.9 2.6 0.00 0.00 0.00 69 1019.3
20260506002056 68 175 0.9 3.5 0.00 0.00 0.00 70 1019.3
20260506001606 68 109 0.9 3.5 0.00 0.00 0.00 68 1019.4
20260506001055 67 209 0.9 3.5 0.00 0.00 0.00 68 1019.5
20260506000555 67 217 0.9 3.5 0.00 0.00 0.00 68 1019.5
20260506000118 67 153 0.0 2.6 0.00 0.00 0.00 68 1019.5
20260505235550 67 107 0.0 3.5 0.00 0.00 0.00 69 1019.5
20260505235049 66 165 0.9 3.5 0.00 0.00 0.00 69 1019.5
20260505234548 66 146 0.9 4.3 0.00 0.00 0.00 70 1019.6
20260505234048 65 209 1.7 4.3 0.00 0.00 0.00 71 1019.5
20260505233544 65 135 1.7 5.2 0.00 0.00 0.00 71 1019.4
20260505233050 65 163 0.9 5.2 0.00 0.00 0.00 73 1019.5
20260505232545 64 134 0.9 5.2 0.00 0.00 0.00 72 1019.5
20260505232042 64 211 1.7 3.5 0.00 0.00 0.00 72 1019.6
20260505231550 64 146 1.7 3.5 0.00 0.00 0.00 72 1019.6
20260505231040 63 209 0.9 3.5 0.00 0.00 0.00 72 1019.6
20260505230539 63 158 1.7 3.5 0.00 0.00 0.00 73 1019.7
20260505230045 63 159 1.7 3.5 0.00 0.00 0.00 73 1019.7
20260505225537 63 132 0.9 3.5 0.00 0.00 0.00 74 1019.6
20260505225036 63 148 0.0 3.5 0.00 0.00 0.00 75 1019.6
20260505224544 62 153 0.9 2.6 0.00 0.00 0.00 75 1019.7
20260505224034 62 166 0.9 4.3 0.00 0.00 0.00 77 1019.6
20260505223532 61 176 0.9 4.3 0.00 0.00 0.00 78 1019.6
20260505223037 61 146 0.0 1.7 0.00 0.00 0.00 79 1019.7
20260505222530 60 203 0.0 1.7 0.00 0.00 0.00 80 1019.6
20260505222029 60 204 0.0 0.9 0.00 0.00 0.00 81 1019.7
20260505221527 59 204 0.0 0.9 0.00 0.00 0.00 80 1019.7
20260505221027 59 204 0.0 0.9 0.00 0.00 0.00 80 1019.7
20260505220525 59 204 0.0 2.6 0.00 0.00 0.00 81 1019.6
20260505220026 58 204 0.0 2.6 0.00 0.00 0.00 81 1019.6
20260505215528 58 209 0.0 1.7 0.00 0.00 0.00 81 1019.6
20260505215025 58 209 0.0 1.7 0.00 0.00 0.00 81 1019.6
20260505214525 58 209 0.0 1.7 0.00 0.00 0.00 81 1019.6
20260505214026 57 209 0.0 1.7 0.00 0.00 0.00 81 1019.5
20260505213524 57 208 0.0 0.9 0.00 0.00 0.00 81 1019.5
20260505213027 57 208 0.0 1.7 0.00 0.00 0.00 81 1019.4
20260505212524 57 208 0.0 1.7 0.00 0.00 0.00 81 1019.5
20260505212024 57 208 0.0 1.7 0.00 0.00 0.00 81 1019.5
20260505211530 57 208 0.0 0.9 0.00 0.00 0.00 82 1019.4
20260505211024 57 209 0.0 1.7 0.00 0.00 0.00 83 1019.5
20260505210523 57 209 0.0 1.7 0.00 0.00 0.00 83 1019.4
20260505210023 57 209 0.0 0.9 0.00 0.00 0.00 82 1019.5
20260505205526 57 208 0.0 0.9 0.00 0.00 0.00 82 1019.5
20260505205027 57 209 0.0 1.7 0.00 0.00 0.00 82 1019.3
20260505204522 57 209 0.0 1.7 0.00 0.00 0.00 82 1019.3
20260505204026 57 209 0.0 0.0 0.00 0.00 0.00 82 1019.3
20260505203521 57 209 0.0 0.0 0.00 0.00 0.00 82 1019.2
20260505203021 57 209 0.0 1.7 0.00 0.00 0.00 82 1019.2
20260505202521 57 209 0.9 1.7 0.00 0.00 0.00 81 1019.2
20260505202024 57 209 0.0 0.9 0.00 0.00 0.00 81 1019.2
20260505201521 57 209 0.0 0.9 0.00 0.00 0.00 81 1019.2
20260505201021 57 209 0.0 1.7 0.00 0.00 0.00 80 1019.2
20260505200521 57 209 0.0 1.7 0.00 0.00 0.00 80 1019.1
20260505200020 57 202 0.0 1.7 0.00 0.00 0.00 80 1019.1
20260505195520 57 186 0.0 1.7 0.00 0.01 0.00 80 1019.2
20260505195020 57 201 0.0 0.9 0.00 0.01 0.00 80 1019.1
20260505194520 57 201 0.0 0.9 0.00 0.01 0.00 80 1019.1
20260505194021 57 201 0.0 1.7 0.00 0.01 0.00 80 1019.1
20260505193520 57 202 0.0 1.7 0.00 0.01 0.00 80 1019.2
20260505193018 57 209 0.0 0.9 0.00 0.01 0.00 81 1019.1
20260505192519 57 209 0.0 2.6 0.00 0.01 0.00 81 1019.1
20260505192018 57 207 0.0 1.7 0.00 0.01 0.00 82 1019.1
20260505191519 57 208 0.0 0.9 0.00 0.01 0.00 83 1019.1
20260505191018 57 208 0.0 0.9 0.00 0.01 0.00 83 1019.1
20260505190517 57 208 0.0 1.7 0.00 0.01 0.00 84 1019.0
20260505190017 57 208 0.0 0.9 0.00 0.01 0.00 84 1019.0
20260505185517 57 209 0.0 0.9 0.00 0.01 0.00 84 1019.0
20260505185017 57 209 0.0 0.9 0.00 0.01 0.00 85 1019.0
20260505184518 57 200 0.0 0.9 0.00 0.01 0.00 84 1019.0
20260505184016 57 211 0.0 1.7 0.00 0.01 0.00 84 1019.0
20260505183518 57 211 0.0 1.7 0.00 0.01 0.00 83 1019.0
20260505183016 57 198 0.0 1.7 0.00 0.01 0.00 83 1019.0
20260505182516 57 198 0.0 1.7 0.00 0.01 0.00 83 1019.0
20260505182018 57 196 0.0 1.7 0.00 0.01 0.00 83 1018.9
20260505181515 57 202 0.0 1.7 0.00 0.01 0.00 83 1018.9
20260505181015 57 163 0.0 0.9 0.00 0.01 0.00 83 1018.9
20260505180513 57 162 0.0 1.7 0.00 0.01 0.00 83 1018.8
20260505180014 57 162 0.0 1.7 0.00 0.01 0.00 84 1018.8
20260505175513 57 185 0.0 2.6 0.00 0.01 0.00 84 1018.8
20260505175013 57 176 0.0 1.7 0.00 0.01 0.00 85 1018.8
20260505174518 57 171 0.0 1.7 0.00 0.01 0.00 85 1018.8
20260505174011 57 171 0.0 1.7 0.00 0.01 0.00 85 1018.9
20260505173510 57 171 0.0 1.7 0.00 0.01 0.00 86 1018.9
20260505173010 57 148 0.0 2.6 0.00 0.01 0.00 86 1019.0
20260505172512 57 137 0.0 4.3 0.00 0.01 0.00 87 1018.9
20260505172009 57 141 0.9 4.3 0.00 0.01 0.00 87 1019.0
20260505171516 57 165 0.9 2.6 0.00 0.01 0.00 87 1019.0
20260505171009 57 165 0.0 1.7 0.00 0.01 0.00 87 1019.1
20260505170508 57 167 0.9 2.6 0.00 0.01 0.00 87 1019.0
20260505170006 57 153 0.9 2.6 0.00 0.01 0.00 87 1019.0
20260505165507 57 223 0.0 1.7 0.00 0.03 0.00 86 1019.0
20260505165005 57 244 0.0 1.7 0.00 0.03 0.00 85 1019.1
20260505164505 57 252 0.0 1.7 0.00 0.03 0.00 85 1019.0
20260505164004 57 252 0.0 0.0 0.00 0.03 0.00 85 1019.1
20260505163502 58 252 0.0 0.0 0.00 0.03 0.00 84 1019.2
20260505163009 58 252 0.0 0.9 0.00 0.03 0.00 84 1019.2
20260505162502 57 252 0.0 1.7 0.00 0.03 0.00 84 1019.2
20260505162003 57 252 0.9 1.7 0.00 0.03 0.00 85 1019.2
20260505161502 58 252 0.0 1.7 0.00 0.03 0.00 85 1019.2
20260505161002 58 252 0.0 0.9 0.00 0.03 0.00 84 1019.3
20260505160501 58 252 0.0 0.9 0.00 0.03 0.00 84 1019.4
20260505153048 58 252 0.0 1.7 0.00 0.10 0.00 82 1019.5
20260505152548 58 208 0.0 1.7 0.00 0.10 0.00 82 1019.5
20260505152046 58 208 0.0 1.7 0.00 0.10 0.00 82 1019.6
20260505151547 58 208 0.0 1.7 0.00 0.10 0.00 83 1019.6
20260505151048 58 208 0.9 1.7 0.00 0.10 0.00 83 1019.6
20260505150545 58 208 0.0 1.7 0.00 0.10 0.00 83 1019.7
20260505140539 58 144 0.0 0.9 0.00 0.11 0.00 82 1019.9
20260505125035 60 125 0.0 1.7 0.00 0.12 0.11 83 1019.9
20260505124535 60 125 0.0 0.9 0.00 0.12 0.11 83 1020.0
20260505124037 60 125 0.0 1.7 0.00 0.12 0.11 82 1020.0
20260505123536 59 125 0.0 1.7 0.00 0.12 0.11 81 1019.9
20260505123046 59 125 0.0 1.7 0.00 0.12 0.11 81 1019.9
20260505122534 59 125 0.0 1.7 0.00 0.12 0.11 81 1019.9
20260505122034 59 5 0.0 0.0 0.00 0.12 0.11 82 1020.0
20260505121535 59 5 0.0 0.0 0.00 0.12 0.11 83 1020.0
20260505121035 59 5 0.0 0.0 0.00 0.12 0.11 84 1020.1
20260505120532 60 5 0.0 0.0 0.00 0.12 0.11 85 1020.2
20260505120044 60 5 0.0 0.0 0.00 0.12 0.11 85 1020.2
20260505115532 60 5 0.0 0.0 0.00 0.12 0.11 85 1020.2
20260505115032 60 5 0.0 0.0 0.00 0.12 0.11 85 1020.2
20260505114532 60 5 0.0 0.0 0.00 0.12 0.11 84 1020.1
20260505114032 60 5 0.0 0.0 0.00 0.12 0.11 82 1020.1
20260505113531 60 5 0.0 0.0 0.00 0.12 0.11 81 1020.0
20260505113032 60 5 0.0 0.0 0.00 0.12 0.11 79 1020.0
20260505112530 60 5 0.0 0.0 0.00 0.12 0.11 77 1020.0
20260505112030 60 5 0.0 0.0 0.00 0.12 0.11 77 1019.9
20260505111535 61 5 0.0 0.0 0.00 0.12 0.11 77 1019.9
20260505111033 61 5 0.0 0.0 0.00 0.12 0.11 79 1019.8
20260505110529 61 5 0.0 0.0 0.00 0.12 0.11 80 1019.9
20260505102029 62 5 0.0 0.0 0.00 0.15 0.11 74 1019.7
20260505101525 62 5 0.0 0.0 0.00 0.15 0.11 72 1019.6
20260505101025 63 5 0.0 0.9 0.00 0.15 0.11 71 1019.4
20260505100524 63 5 0.0 1.7 0.00 0.15 0.11 70 1019.5
20260505100024 63 5 0.9 1.7 0.00 0.15 0.11 69 1019.4
20260505095525 63 5 0.9 1.7 0.00 0.15 0.11 69 1019.4
20260505095023 63 5 0.0 0.0 0.00 0.15 0.11 69 1019.4
20260505094523 64 5 0.0 0.9 0.00 0.15 0.11 68 1019.3
20260505094023 64 5 0.0 1.7 0.00 0.15 0.11 66 1019.3
20260505093522 64 5 0.9 1.7 0.00 0.15 0.11 67 1019.2
20260505093023 64 5 0.9 2.6 0.00 0.15 0.11 67 1019.2
20260505092525 64 5 0.9 2.6 0.00 0.15 0.11 67 1019.2
20260505092022 64 5 0.9 2.6 0.00 0.15 0.11 67 1019.2
20260505091522 64 5 0.0 0.0 0.00 0.15 0.11 68 1019.1
20260505091021 64 5 0.0 0.0 0.00 0.15 0.11 68 1019.2
20260505090520 64 5 0.0 0.0 0.00 0.15 0.11 68 1019.1
20260505090021 64 5 0.0 1.7 0.00 0.15 0.11 68 1019.0
20260505085519 64 5 0.0 2.6 0.00 0.15 0.11 67 1019.0
20260505085019 64 5 0.9 2.6 0.00 0.15 0.11 67 1018.9
20260505084518 64 5 0.9 2.6 0.00 0.15 0.11 68 1018.8
20260505084019 64 5 1.7 2.6 0.00 0.15 0.11 68 1018.7
20260505083522 64 9 0.9 2.6 0.00 0.15 0.11 68 1018.7
20260505083019 64 9 0.9 2.6 0.00 0.15 0.11 67 1018.6
20260505082522 64 9 0.9 1.7 0.00 0.15 0.11 68 1018.5
20260505082018 64 9 0.9 2.6 0.00 0.15 0.11 69 1018.3
20260505081522 64 13 0.9 2.6 0.00 0.15 0.11 69 1018.2
20260505081021 63 30 0.9 1.7 0.00 0.15 0.11 69 1018.1
20260505080520 63 30 0.9 1.7 0.00 0.15 0.11 70 1018.0
20260505080016 63 30 0.0 0.9 0.00 0.15 0.11 70 1018.0
20260505075517 63 30 0.0 0.9 0.00 0.15 0.11 69 1017.8
20260505075016 64 30 0.0 0.0 0.00 0.15 0.11 69 1017.9
20260505074516 64 30 0.0 0.9 0.00 0.15 0.11 68 1017.9
20260505074016 64 30 0.0 0.9 0.00 0.15 0.11 67 1017.8
20260505073516 65 30 0.0 1.7 0.00 0.15 0.11 67 1017.5
20260505073017 65 30 0.0 1.7 0.00 0.15 0.11 66 1017.5
20260505072516 66 30 0.0 1.7 0.00 0.15 0.11 65 1017.6
20260505072015 66 30 0.0 0.0 0.00 0.15 0.11 64 1017.5
20260505071516 67 30 0.0 0.9 0.00 0.15 0.11 64 1017.4
20260505071016 67 30 0.0 0.9 0.00 0.15 0.11 63 1017.3
20260505070517 68 30 0.0 0.0 0.00 0.15 0.11 63 1017.1
20260505070015 68 30 0.0 0.9 0.00 0.15 0.11 63 1017.2
20260505065515 68 30 0.0 1.7 0.00 0.15 0.11 63 1017.1
20260505065014 68 30 0.0 1.7 0.00 0.15 0.11 63 1017.0
20260505064515 67 109 0.0 0.0 0.00 0.15 0.11 64 1016.9
20260505064014 67 109 0.0 0.9 0.00 0.15 0.11 64 1016.9
20260505063514 67 109 0.0 0.9 0.00 0.15 0.11 64 1016.8
20260505063014 67 109 0.0 1.7 0.00 0.15 0.11 64 1016.9
20260505062514 66 109 0.0 1.7 0.00 0.15 0.11 63 1016.8
20260505062013 67 109 0.0 1.7 0.00 0.15 0.11 62 1016.6
20260505061514 67 109 0.0 3.5 0.00 0.15 0.11 61 1016.8
20260505061013 67 109 0.9 3.5 0.00 0.15 0.11 61 1016.9
20260505060513 68 112 0.9 2.6 0.00 0.15 0.11 59 1016.9
20260505060017 69 97 0.9 5.2 0.00 0.15 0.11 58 1016.8
20260505055514 70 104 0.9 5.2 0.00 0.15 0.11 56 1016.7
20260505055013 70 89 0.9 2.6 0.00 0.15 0.11 54 1016.7
20260505054520 70 94 0.9 2.6 0.00 0.15 0.11 53 1016.5
20260505054012 70 67 0.9 1.7 0.00 0.15 0.11 53 1016.5
20260505053516 71 34 0.0 1.7 0.00 0.15 0.11 54 1016.7
20260505053012 71 34 0.0 1.7 0.00 0.15 0.11 52 1016.7
20260505052512 71 154 0.0 1.7 0.00 0.15 0.11 51 1016.6
20260505052012 71 178 0.0 1.7 0.00 0.15 0.11 49 1016.5
20260505051513 71 80 0.0 1.7 0.00 0.15 0.11 51 1016.3
20260505051012 71 84 0.0 1.7 0.00 0.15 0.11 50 1016.3
20260505050513 71 84 0.0 1.7 0.00 0.15 0.11 49 1016.4